Year,Month,Day,Hour,Minute,Value (Times are PST for temperature in C)
2008,12,08,00,00,1.70
2008,12,08,00,01,1.80
2008,12,08,00,02,1.80
2008,12,08,00,03,1.90
2008,12,08,00,04,2.00
2008,12,08,00,05,2.10
2008,12,08,00,06,2.10
2008,12,08,00,07,2.10
2008,12,08,00,08,2.10
2008,12,08,00,09,2.10
2008,12,08,00,10,2.10
2008,12,08,00,11,2.00
2008,12,08,00,12,2.00
2008,12,08,00,13,1.90
2008,12,08,00,14,1.90
2008,12,08,00,15,1.80
2008,12,08,00,16,1.80
2008,12,08,00,17,1.80
2008,12,08,00,18,1.70
2008,12,08,00,19,1.70
2008,12,08,00,20,1.60
2008,12,08,00,21,1.60
2008,12,08,00,22,1.60
2008,12,08,00,23,1.60
2008,12,08,00,24,1.60
2008,12,08,00,25,1.60
2008,12,08,00,26,1.60
2008,12,08,00,27,1.60
2008,12,08,00,28,1.60
2008,12,08,00,29,1.60
2008,12,08,00,30,1.60
2008,12,08,00,31,1.60
2008,12,08,00,32,1.70
2008,12,08,00,33,1.70
2008,12,08,00,34,1.70
2008,12,08,00,35,1.70
2008,12,08,00,36,1.80
2008,12,08,00,37,1.80
2008,12,08,00,38,1.80
2008,12,08,00,39,1.80
2008,12,08,00,40,1.80
2008,12,08,00,41,1.70
2008,12,08,00,42,1.70
2008,12,08,00,43,1.70
2008,12,08,00,44,1.70
2008,12,08,00,45,1.60
2008,12,08,00,46,1.60
2008,12,08,00,47,1.60
2008,12,08,00,48,1.60
2008,12,08,00,49,1.50
2008,12,08,00,50,1.50
2008,12,08,00,51,1.50
2008,12,08,00,52,1.50
2008,12,08,00,53,1.50
2008,12,08,00,54,1.50
2008,12,08,00,55,1.50
2008,12,08,00,56,1.50
2008,12,08,00,57,1.50
2008,12,08,00,58,1.50
2008,12,08,00,59,1.50
2008,12,08,01,00,1.50
2008,12,08,01,01,1.50
2008,12,08,01,02,1.50
2008,12,08,01,03,1.60
2008,12,08,01,04,1.60
2008,12,08,01,05,1.60
2008,12,08,01,06,1.60
2008,12,08,01,07,1.70
2008,12,08,01,08,1.80
2008,12,08,01,09,1.80
2008,12,08,01,10,1.90
2008,12,08,01,11,1.90
2008,12,08,01,12,2.00
2008,12,08,01,13,2.00
2008,12,08,01,14,2.00
2008,12,08,01,15,2.00
2008,12,08,01,16,2.10
2008,12,08,01,17,2.10
2008,12,08,01,18,2.10
2008,12,08,01,19,2.10
2008,12,08,01,20,2.10
2008,12,08,01,21,2.10
2008,12,08,01,22,2.10
2008,12,08,01,23,2.10
2008,12,08,01,24,2.10
2008,12,08,01,25,2.10
2008,12,08,01,26,2.10
2008,12,08,01,27,2.10
2008,12,08,01,28,2.10
2008,12,08,01,29,2.10
2008,12,08,01,30,2.10
2008,12,08,01,31,2.10
2008,12,08,01,32,2.10
2008,12,08,01,33,2.10
2008,12,08,01,34,2.20
2008,12,08,01,35,2.20
2008,12,08,01,36,2.20
2008,12,08,01,37,2.20
2008,12,08,01,38,2.20
2008,12,08,01,39,2.20
2008,12,08,01,40,2.20
2008,12,08,01,41,2.20
2008,12,08,01,42,2.20
2008,12,08,01,43,2.20
2008,12,08,01,44,2.20
2008,12,08,01,45,2.20
2008,12,08,01,46,2.20
2008,12,08,01,47,2.20
2008,12,08,01,48,2.20
2008,12,08,01,49,2.20
2008,12,08,01,50,2.20
2008,12,08,01,51,2.20
2008,12,08,01,52,2.20
2008,12,08,01,53,2.20
2008,12,08,01,54,2.30
2008,12,08,01,55,2.30
2008,12,08,01,56,2.30
2008,12,08,01,57,2.30
2008,12,08,01,58,2.30
2008,12,08,01,59,2.40
2008,12,08,02,00,2.40
2008,12,08,02,01,2.40
2008,12,08,02,02,2.40
2008,12,08,02,03,2.50
2008,12,08,02,04,2.50
2008,12,08,02,05,2.60
2008,12,08,02,06,2.60
2008,12,08,02,07,2.60
2008,12,08,02,08,2.60
2008,12,08,02,09,2.60
2008,12,08,02,10,2.60
2008,12,08,02,11,2.60
2008,12,08,02,12,2.60
2008,12,08,02,13,2.60
2008,12,08,02,14,2.60
2008,12,08,02,15,2.50
2008,12,08,02,16,2.50
2008,12,08,02,17,2.50
2008,12,08,02,18,2.50
2008,12,08,02,19,2.50
2008,12,08,02,20,2.50
2008,12,08,02,21,2.50
2008,12,08,02,22,2.40
2008,12,08,02,23,2.40
2008,12,08,02,24,2.40
2008,12,08,02,25,2.40
2008,12,08,02,26,2.40
2008,12,08,02,27,2.40
2008,12,08,02,28,2.40
2008,12,08,02,29,2.40
2008,12,08,02,30,2.30
2008,12,08,02,31,2.30
2008,12,08,02,32,2.30
2008,12,08,02,33,2.30
2008,12,08,02,34,2.30
2008,12,08,02,35,2.30
2008,12,08,02,36,2.30
2008,12,08,02,37,2.30
2008,12,08,02,38,2.30
2008,12,08,02,39,2.30
2008,12,08,02,40,2.30
2008,12,08,02,41,2.30
2008,12,08,02,42,2.30
2008,12,08,02,43,2.30
2008,12,08,02,44,2.20
2008,12,08,02,45,2.20
2008,12,08,02,46,2.20
2008,12,08,02,47,2.20
2008,12,08,02,48,2.20
2008,12,08,02,49,2.20
2008,12,08,02,50,2.20
2008,12,08,02,51,2.20
2008,12,08,02,52,2.20
2008,12,08,02,53,2.20
2008,12,08,02,54,2.20
2008,12,08,02,55,2.30
2008,12,08,02,56,2.30
2008,12,08,02,57,2.30
2008,12,08,02,58,2.30
2008,12,08,02,59,2.30
2008,12,08,03,00,2.30
2008,12,08,03,01,2.40
2008,12,08,03,02,2.40
2008,12,08,03,03,2.40
2008,12,08,03,04,2.40
2008,12,08,03,05,2.40
2008,12,08,03,06,2.50
2008,12,08,03,07,2.50
2008,12,08,03,08,2.50
2008,12,08,03,09,2.60
2008,12,08,03,10,2.60
2008,12,08,03,11,2.60
2008,12,08,03,12,2.60
2008,12,08,03,13,2.60
2008,12,08,03,14,2.60
2008,12,08,03,15,2.60
2008,12,08,03,16,2.60
2008,12,08,03,17,2.60
2008,12,08,03,18,2.60
2008,12,08,03,19,2.60
2008,12,08,03,20,2.70
2008,12,08,03,21,2.70
2008,12,08,03,22,2.70
2008,12,08,03,23,2.70
2008,12,08,03,24,2.60
2008,12,08,03,25,2.60
2008,12,08,03,26,2.60
2008,12,08,03,27,2.60
2008,12,08,03,28,2.60
2008,12,08,03,29,2.60
2008,12,08,03,30,2.70
2008,12,08,03,31,2.70
2008,12,08,03,32,2.70
2008,12,08,03,33,2.70
2008,12,08,03,34,2.70
2008,12,08,03,35,2.70
2008,12,08,03,36,2.80
2008,12,08,03,37,2.80
2008,12,08,03,38,2.80
2008,12,08,03,39,2.80
2008,12,08,03,40,2.90
2008,12,08,03,41,2.90
2008,12,08,03,42,2.90
2008,12,08,03,43,2.90
2008,12,08,03,44,2.90
2008,12,08,03,45,2.90
2008,12,08,03,46,3.00
2008,12,08,03,47,3.00
2008,12,08,03,48,3.00
2008,12,08,03,49,3.00
2008,12,08,03,50,3.00
2008,12,08,03,51,3.00
2008,12,08,03,52,3.00
2008,12,08,03,53,3.00
2008,12,08,03,54,3.00
2008,12,08,03,55,3.00
2008,12,08,03,56,2.90
2008,12,08,03,57,2.90
2008,12,08,03,58,3.00
2008,12,08,03,59,3.00
2008,12,08,04,00,3.00
2008,12,08,04,01,3.00
2008,12,08,04,02,3.00
2008,12,08,04,03,3.00
2008,12,08,04,04,3.00
2008,12,08,04,05,3.00
2008,12,08,04,06,3.00
2008,12,08,04,07,3.00
2008,12,08,04,08,3.00
2008,12,08,04,09,3.10
2008,12,08,04,10,3.10
2008,12,08,04,11,3.10
2008,12,08,04,12,3.10
2008,12,08,04,13,3.20
2008,12,08,04,14,3.20
2008,12,08,04,15,3.30
2008,12,08,04,16,3.30
2008,12,08,04,17,3.30
2008,12,08,04,18,3.30
2008,12,08,04,19,3.40
2008,12,08,04,20,3.40
2008,12,08,04,21,3.40
2008,12,08,04,22,3.40
2008,12,08,04,23,3.40
2008,12,08,04,24,3.50
2008,12,08,04,25,3.50
2008,12,08,04,26,3.50
2008,12,08,04,27,3.50
2008,12,08,04,28,3.40
2008,12,08,04,29,3.40
2008,12,08,04,30,3.40
2008,12,08,04,31,3.30
2008,12,08,04,32,3.30
2008,12,08,04,33,3.30
2008,12,08,04,34,3.30
2008,12,08,04,35,3.30
2008,12,08,04,36,3.30
2008,12,08,04,37,3.30
2008,12,08,04,38,3.30
2008,12,08,04,39,3.30
2008,12,08,04,40,3.30
2008,12,08,04,41,3.30
2008,12,08,04,42,3.30
2008,12,08,04,43,3.30
2008,12,08,04,44,3.30
2008,12,08,04,45,3.40
2008,12,08,04,46,3.40
2008,12,08,04,47,3.40
2008,12,08,04,48,3.40
2008,12,08,04,49,3.40
2008,12,08,04,50,3.40
2008,12,08,04,51,3.50
2008,12,08,04,52,3.50
2008,12,08,04,53,3.50
2008,12,08,04,54,3.50
2008,12,08,04,55,3.50
2008,12,08,04,56,3.50
2008,12,08,04,57,3.50
2008,12,08,04,58,3.50
2008,12,08,04,59,3.50
2008,12,08,05,00,3.50
2008,12,08,05,01,3.50
2008,12,08,05,02,3.50
2008,12,08,05,03,3.50
2008,12,08,05,04,3.50
2008,12,08,05,05,3.50
2008,12,08,05,06,3.50
2008,12,08,05,07,3.50
2008,12,08,05,08,3.50
2008,12,08,05,09,3.50
2008,12,08,05,10,3.50
2008,12,08,05,11,3.50
2008,12,08,05,12,3.40
2008,12,08,05,13,3.40
2008,12,08,05,14,3.40
2008,12,08,05,15,3.40
2008,12,08,05,16,3.40
2008,12,08,05,17,3.40
2008,12,08,05,18,3.40
2008,12,08,05,19,3.40
2008,12,08,05,20,3.40
2008,12,08,05,21,3.30
2008,12,08,05,22,3.30
2008,12,08,05,23,3.30
2008,12,08,05,24,3.30
2008,12,08,05,25,3.40
2008,12,08,05,26,3.40
2008,12,08,05,27,3.40
2008,12,08,05,28,3.40
2008,12,08,05,29,3.40
2008,12,08,05,30,3.40
2008,12,08,05,31,3.40
2008,12,08,05,32,3.40
2008,12,08,05,33,3.40
2008,12,08,05,34,3.40
2008,12,08,05,35,3.40
2008,12,08,05,36,3.40
2008,12,08,05,37,3.40
2008,12,08,05,38,3.40
2008,12,08,05,39,3.40
2008,12,08,05,40,3.40
2008,12,08,05,41,3.40
2008,12,08,05,42,3.40
2008,12,08,05,43,3.40
2008,12,08,05,44,3.40
2008,12,08,05,45,3.40
2008,12,08,05,46,3.40
2008,12,08,05,47,3.40
2008,12,08,05,48,3.40
2008,12,08,05,49,3.40
2008,12,08,05,50,3.40
2008,12,08,05,51,3.40
2008,12,08,05,52,3.40
2008,12,08,05,53,3.40
2008,12,08,05,54,3.40
2008,12,08,05,55,3.40
2008,12,08,05,56,3.40
2008,12,08,05,57,3.50
2008,12,08,05,58,3.50
2008,12,08,05,59,3.60
2008,12,08,06,00,3.60
2008,12,08,06,01,3.60
2008,12,08,06,02,3.60
2008,12,08,06,03,3.60
2008,12,08,06,04,3.60
2008,12,08,06,05,3.60
2008,12,08,06,06,3.60
2008,12,08,06,07,3.60
2008,12,08,06,08,3.60
2008,12,08,06,09,3.60
2008,12,08,06,10,3.60
2008,12,08,06,11,3.60
2008,12,08,06,12,3.60
2008,12,08,06,13,3.60
2008,12,08,06,14,3.60
2008,12,08,06,15,3.60
2008,12,08,06,16,3.60
2008,12,08,06,17,3.60
2008,12,08,06,18,3.60
2008,12,08,06,19,3.70
2008,12,08,06,20,3.70
2008,12,08,06,21,3.70
2008,12,08,06,22,3.70
2008,12,08,06,23,3.70
2008,12,08,06,24,3.70
2008,12,08,06,25,3.70
2008,12,08,06,26,3.70
2008,12,08,06,27,3.70
2008,12,08,06,28,3.80
2008,12,08,06,29,3.80
2008,12,08,06,30,3.80
2008,12,08,06,31,3.80
2008,12,08,06,32,3.80
2008,12,08,06,33,3.80
2008,12,08,06,34,3.80
2008,12,08,06,35,3.80
2008,12,08,06,36,3.80
2008,12,08,06,37,3.80
2008,12,08,06,38,3.80
2008,12,08,06,39,3.80
2008,12,08,06,40,3.80
2008,12,08,06,41,3.80
2008,12,08,06,42,3.80
2008,12,08,06,43,3.80
2008,12,08,06,44,3.80
2008,12,08,06,45,3.80
2008,12,08,06,46,3.80
2008,12,08,06,47,3.90
2008,12,08,06,48,3.90
2008,12,08,06,49,3.90
2008,12,08,06,50,3.90
2008,12,08,06,51,3.90
2008,12,08,06,52,3.90
2008,12,08,06,53,3.90
2008,12,08,06,54,3.90
2008,12,08,06,55,3.90
2008,12,08,06,56,4.00
2008,12,08,06,57,4.00
2008,12,08,06,58,4.00
2008,12,08,06,59,4.00
2008,12,08,07,00,4.00
2008,12,08,07,01,4.00
2008,12,08,07,02,4.00
2008,12,08,07,03,4.00
2008,12,08,07,04,4.00
2008,12,08,07,05,4.00
2008,12,08,07,06,4.00
2008,12,08,07,07,4.00
2008,12,08,07,08,4.00
2008,12,08,07,09,4.00
2008,12,08,07,10,3.90
2008,12,08,07,11,3.90
2008,12,08,07,12,3.90
2008,12,08,07,13,3.90
2008,12,08,07,14,4.00
2008,12,08,07,15,4.00
2008,12,08,07,16,4.00
2008,12,08,07,17,4.00
2008,12,08,07,18,4.00
2008,12,08,07,19,4.10
2008,12,08,07,20,4.10
2008,12,08,07,21,4.10
2008,12,08,07,22,4.10
2008,12,08,07,23,4.10
2008,12,08,07,24,4.10
2008,12,08,07,25,4.10
2008,12,08,07,26,4.10
2008,12,08,07,27,4.10
2008,12,08,07,28,4.10
2008,12,08,07,29,4.10
2008,12,08,07,30,4.10
2008,12,08,07,31,4.10
2008,12,08,07,32,4.10
2008,12,08,07,33,4.20
2008,12,08,07,34,4.20
2008,12,08,07,35,4.20
2008,12,08,07,36,4.20
2008,12,08,07,37,4.30
2008,12,08,07,38,4.30
2008,12,08,07,39,4.30
2008,12,08,07,40,4.30
2008,12,08,07,41,4.30
2008,12,08,07,42,4.40
2008,12,08,07,43,4.40
2008,12,08,07,44,4.40
2008,12,08,07,45,4.40
2008,12,08,07,46,4.40
2008,12,08,07,47,4.40
2008,12,08,07,48,4.40
2008,12,08,07,49,4.40
2008,12,08,07,50,4.50
2008,12,08,07,51,4.50
2008,12,08,07,52,4.50
2008,12,08,07,53,4.60
2008,12,08,07,54,4.60
2008,12,08,07,55,4.60
2008,12,08,07,56,4.60
2008,12,08,07,57,4.60
2008,12,08,07,58,4.60
2008,12,08,07,59,4.70
2008,12,08,08,00,4.60
2008,12,08,08,01,4.60
2008,12,08,08,02,4.60
2008,12,08,08,03,4.60
2008,12,08,08,04,4.60
2008,12,08,08,05,4.60
2008,12,08,08,06,4.60
2008,12,08,08,07,4.60
2008,12,08,08,08,4.60
2008,12,08,08,09,4.60
2008,12,08,08,10,4.60
2008,12,08,08,11,4.60
2008,12,08,08,12,4.60
2008,12,08,08,13,4.60
2008,12,08,08,14,4.50
2008,12,08,08,15,4.50
2008,12,08,08,16,4.50
2008,12,08,08,17,4.50
2008,12,08,08,18,4.50
2008,12,08,08,19,4.50
2008,12,08,08,20,4.40
2008,12,08,08,21,4.40
2008,12,08,08,22,4.50
2008,12,08,08,23,4.40
2008,12,08,08,24,4.40
2008,12,08,08,25,4.50
2008,12,08,08,26,4.50
2008,12,08,08,27,4.50
2008,12,08,08,28,4.50
2008,12,08,08,29,4.50
2008,12,08,08,30,4.60
2008,12,08,08,31,4.60
2008,12,08,08,32,4.60
2008,12,08,08,33,4.60
2008,12,08,08,34,4.70
2008,12,08,08,35,4.70
2008,12,08,08,36,4.70
2008,12,08,08,37,4.80
2008,12,08,08,38,4.80
2008,12,08,08,39,4.80
2008,12,08,08,40,4.80
2008,12,08,08,41,4.80
2008,12,08,08,42,4.80
2008,12,08,08,43,4.80
2008,12,08,08,44,4.80
2008,12,08,08,45,4.80
2008,12,08,08,46,4.80
2008,12,08,08,47,4.90
2008,12,08,08,48,4.90
2008,12,08,08,49,4.90
2008,12,08,08,50,4.90
2008,12,08,08,51,4.90
2008,12,08,08,52,4.90
2008,12,08,08,53,4.90
2008,12,08,08,54,4.90
2008,12,08,08,55,4.90
2008,12,08,08,56,4.90
2008,12,08,08,57,5.00
2008,12,08,08,58,5.00
2008,12,08,08,59,5.00
2008,12,08,09,00,5.10
2008,12,08,09,01,5.10
2008,12,08,09,02,5.10
2008,12,08,09,03,5.10
2008,12,08,09,04,5.10
2008,12,08,09,05,5.10
2008,12,08,09,06,5.10
2008,12,08,09,07,5.10
2008,12,08,09,08,5.10
2008,12,08,09,09,5.20
2008,12,08,09,10,5.20
2008,12,08,09,11,5.20
2008,12,08,09,12,5.30
2008,12,08,09,13,5.30
2008,12,08,09,14,5.30
2008,12,08,09,15,5.30
2008,12,08,09,16,5.30
2008,12,08,09,17,5.30
2008,12,08,09,18,5.30
2008,12,08,09,19,5.30
2008,12,08,09,20,5.30
2008,12,08,09,21,5.30
2008,12,08,09,22,5.30
2008,12,08,09,23,5.30
2008,12,08,09,24,5.30
2008,12,08,09,25,5.30
2008,12,08,09,26,5.30
2008,12,08,09,27,5.30
2008,12,08,09,28,5.30
2008,12,08,09,29,5.40
2008,12,08,09,30,5.40
2008,12,08,09,31,5.40
2008,12,08,09,32,5.50
2008,12,08,09,33,5.50
2008,12,08,09,34,5.50
2008,12,08,09,35,5.50
2008,12,08,09,36,5.50
2008,12,08,09,37,5.60
2008,12,08,09,38,5.60
2008,12,08,09,39,5.60
2008,12,08,09,40,5.60
2008,12,08,09,41,5.60
2008,12,08,09,42,5.70
2008,12,08,09,43,5.70
2008,12,08,09,44,5.70
2008,12,08,09,45,5.80
2008,12,08,09,46,5.80
2008,12,08,09,47,5.80
2008,12,08,09,48,5.90
2008,12,08,09,49,5.90
2008,12,08,09,50,5.90
2008,12,08,09,51,5.90
2008,12,08,09,52,5.90
2008,12,08,09,53,6.00
2008,12,08,09,54,6.00
2008,12,08,09,55,6.00
2008,12,08,09,56,6.00
2008,12,08,09,57,6.00
2008,12,08,09,58,6.10
2008,12,08,09,59,6.10
2008,12,08,10,00,6.00
2008,12,08,10,01,6.10
2008,12,08,10,02,6.10
2008,12,08,10,03,6.10
2008,12,08,10,04,6.10
2008,12,08,10,05,6.10
2008,12,08,10,06,6.10
2008,12,08,10,07,6.10
2008,12,08,10,08,6.10
2008,12,08,10,09,6.20
2008,12,08,10,10,6.20
2008,12,08,10,11,6.20
2008,12,08,10,12,6.20
2008,12,08,10,13,6.30
2008,12,08,10,14,6.30
2008,12,08,10,15,6.30
2008,12,08,10,16,6.30
2008,12,08,10,17,6.40
2008,12,08,10,18,6.40
2008,12,08,10,19,6.50
2008,12,08,10,20,6.50
2008,12,08,10,21,6.50
2008,12,08,10,22,6.60
2008,12,08,10,23,6.60
2008,12,08,10,24,6.60
2008,12,08,10,25,6.60
2008,12,08,10,26,6.60
2008,12,08,10,27,6.70
2008,12,08,10,28,6.70
2008,12,08,10,29,6.70
2008,12,08,10,30,6.70
2008,12,08,10,31,6.80
2008,12,08,10,32,6.80
2008,12,08,10,33,6.90
2008,12,08,10,34,7.00
2008,12,08,10,35,7.10
2008,12,08,10,36,7.20
2008,12,08,10,37,7.20
2008,12,08,10,38,7.30
2008,12,08,10,39,7.50
2008,12,08,10,40,7.50
2008,12,08,10,41,7.60
2008,12,08,10,42,7.70
2008,12,08,10,43,7.80
2008,12,08,10,44,7.80
2008,12,08,10,45,7.80
2008,12,08,10,46,7.80
2008,12,08,10,47,7.90
2008,12,08,10,48,7.90
2008,12,08,10,49,7.90
2008,12,08,10,50,7.80
2008,12,08,10,51,7.80
2008,12,08,10,52,7.80
2008,12,08,10,53,7.70
2008,12,08,10,54,7.70
2008,12,08,10,55,7.70
2008,12,08,10,56,7.60
2008,12,08,10,57,7.60
2008,12,08,10,58,7.60
2008,12,08,10,59,7.60
2008,12,08,11,00,7.60
2008,12,08,11,01,7.60
2008,12,08,11,02,7.50
2008,12,08,11,03,7.50
2008,12,08,11,04,7.50
2008,12,08,11,05,7.50
2008,12,08,11,06,7.50
2008,12,08,11,07,7.50
2008,12,08,11,08,7.50
2008,12,08,11,09,7.50
2008,12,08,11,10,7.50
2008,12,08,11,11,7.50
2008,12,08,11,12,7.50
2008,12,08,11,13,7.50
2008,12,08,11,14,7.60
2008,12,08,11,15,7.60
2008,12,08,11,16,7.60
2008,12,08,11,17,7.70
2008,12,08,11,18,7.70
2008,12,08,11,19,7.70
2008,12,08,11,20,7.70
2008,12,08,11,21,7.70
2008,12,08,11,22,7.70
2008,12,08,11,23,7.70
2008,12,08,11,24,7.70
2008,12,08,11,25,7.70
2008,12,08,11,26,7.70
2008,12,08,11,27,7.70
2008,12,08,11,28,7.70
2008,12,08,11,29,7.70
2008,12,08,11,30,7.70
2008,12,08,11,31,7.70
2008,12,08,11,32,7.70
2008,12,08,11,33,7.70
2008,12,08,11,34,7.70
2008,12,08,11,35,7.70
2008,12,08,11,36,7.80
2008,12,08,11,37,7.80
2008,12,08,11,38,7.80
2008,12,08,11,39,7.80
2008,12,08,11,40,7.80
2008,12,08,11,41,7.80
2008,12,08,11,42,7.70
2008,12,08,11,43,7.80
2008,12,08,11,44,7.80
2008,12,08,11,45,7.80
2008,12,08,11,46,7.80
2008,12,08,11,47,7.80
2008,12,08,11,48,7.80
2008,12,08,11,49,7.80
2008,12,08,11,50,7.90
2008,12,08,11,51,8.00
2008,12,08,11,52,8.10
2008,12,08,11,53,8.10
2008,12,08,11,54,8.10
2008,12,08,11,55,8.20
2008,12,08,11,56,8.20
2008,12,08,11,57,8.20
2008,12,08,11,58,8.20
2008,12,08,11,59,8.20
2008,12,08,12,00,8.20
2008,12,08,12,01,8.20
2008,12,08,12,02,8.20
2008,12,08,12,03,8.20
2008,12,08,12,04,8.20
2008,12,08,12,05,8.30
2008,12,08,12,06,8.30
2008,12,08,12,07,8.30
2008,12,08,12,08,8.40
2008,12,08,12,09,8.40
2008,12,08,12,10,8.40
2008,12,08,12,11,8.40
2008,12,08,12,12,8.50
2008,12,08,12,13,8.50
2008,12,08,12,14,8.60
2008,12,08,12,15,8.60
2008,12,08,12,16,8.70
2008,12,08,12,17,8.70
2008,12,08,12,18,8.80
2008,12,08,12,19,8.80
2008,12,08,12,20,8.80
2008,12,08,12,21,8.90
2008,12,08,12,22,8.80
2008,12,08,12,23,8.80
2008,12,08,12,24,8.80
2008,12,08,12,25,8.80
2008,12,08,12,26,8.80
2008,12,08,12,27,8.80
2008,12,08,12,28,8.80
2008,12,08,12,29,8.90
2008,12,08,12,30,8.90
2008,12,08,12,31,8.90
2008,12,08,12,32,8.80
2008,12,08,12,33,8.80
2008,12,08,12,34,8.70
2008,12,08,12,35,8.70
2008,12,08,12,36,8.70
2008,12,08,12,37,8.70
2008,12,08,12,38,8.70
2008,12,08,12,39,8.70
2008,12,08,12,40,8.70
2008,12,08,12,41,8.70
2008,12,08,12,42,8.70
2008,12,08,12,43,8.70
2008,12,08,12,44,8.70
2008,12,08,12,45,8.70
2008,12,08,12,46,8.70
2008,12,08,12,47,8.60
2008,12,08,12,48,8.60
2008,12,08,12,49,8.60
2008,12,08,12,50,8.60
2008,12,08,12,51,8.60
2008,12,08,12,52,8.60
2008,12,08,12,53,8.60
2008,12,08,12,54,8.60
2008,12,08,12,55,8.60
2008,12,08,12,56,8.60
2008,12,08,12,57,8.50
2008,12,08,12,58,8.50
2008,12,08,12,59,8.50
2008,12,08,13,00,8.40
2008,12,08,13,01,8.40
2008,12,08,13,02,8.40
2008,12,08,13,03,8.40
2008,12,08,13,04,8.40
2008,12,08,13,05,8.40
2008,12,08,13,06,8.40
2008,12,08,13,07,8.40
2008,12,08,13,08,8.40
2008,12,08,13,09,8.40
2008,12,08,13,10,8.40
2008,12,08,13,11,8.40
2008,12,08,13,12,8.40
2008,12,08,13,13,8.40
2008,12,08,13,14,8.40
2008,12,08,13,15,8.40
2008,12,08,13,16,8.40
2008,12,08,13,17,8.40
2008,12,08,13,18,8.40
2008,12,08,13,19,8.40
2008,12,08,13,20,8.40
2008,12,08,13,21,8.40
2008,12,08,13,22,8.40
2008,12,08,13,23,8.40
2008,12,08,13,24,8.40
2008,12,08,13,25,8.40
2008,12,08,13,26,8.40
2008,12,08,13,27,8.40
2008,12,08,13,28,8.40
2008,12,08,13,29,8.40
2008,12,08,13,30,8.40
2008,12,08,13,31,8.40
2008,12,08,13,32,8.40
2008,12,08,13,33,8.40
2008,12,08,13,34,8.40
2008,12,08,13,35,8.40
2008,12,08,13,36,8.40
2008,12,08,13,37,8.40
2008,12,08,13,38,8.40
2008,12,08,13,39,8.40
2008,12,08,13,40,8.40
2008,12,08,13,41,8.40
2008,12,08,13,42,8.40
2008,12,08,13,43,8.40
2008,12,08,13,44,8.40
2008,12,08,13,45,8.40
2008,12,08,13,46,8.40
2008,12,08,13,47,8.50
2008,12,08,13,48,8.50
2008,12,08,13,49,8.50
2008,12,08,13,50,8.50
2008,12,08,13,51,8.60
2008,12,08,13,52,8.60
2008,12,08,13,53,8.60
2008,12,08,13,54,8.60
2008,12,08,13,55,8.60
2008,12,08,13,56,8.60
2008,12,08,13,57,8.60
2008,12,08,13,58,8.60
2008,12,08,13,59,8.60
2008,12,08,14,00,8.60
2008,12,08,14,01,8.60
2008,12,08,14,02,8.60
2008,12,08,14,03,8.60
2008,12,08,14,04,8.60
2008,12,08,14,05,8.60
2008,12,08,14,06,8.50
2008,12,08,14,07,8.50
2008,12,08,14,08,8.60
2008,12,08,14,09,8.60
2008,12,08,14,10,8.60
2008,12,08,14,11,8.60
2008,12,08,14,12,8.60
2008,12,08,14,13,8.60
2008,12,08,14,14,8.60
2008,12,08,14,15,8.60
2008,12,08,14,16,8.60
2008,12,08,14,17,8.60
2008,12,08,14,18,8.60
2008,12,08,14,19,8.60
2008,12,08,14,20,8.60
2008,12,08,14,21,8.60
2008,12,08,14,22,8.60
2008,12,08,14,23,8.60
2008,12,08,14,24,8.60
2008,12,08,14,25,8.60
2008,12,08,14,26,8.60
2008,12,08,14,27,8.60
2008,12,08,14,28,8.60
2008,12,08,14,29,8.60
2008,12,08,14,30,8.60
2008,12,08,14,31,8.60
2008,12,08,14,32,8.60
2008,12,08,14,33,8.60
2008,12,08,14,34,8.60
2008,12,08,14,35,8.60
2008,12,08,14,36,8.60
2008,12,08,14,37,8.60
2008,12,08,14,38,8.60
2008,12,08,14,39,8.60
2008,12,08,14,40,8.60
2008,12,08,14,41,8.70
2008,12,08,14,42,8.70
2008,12,08,14,43,8.70
2008,12,08,14,44,8.70
2008,12,08,14,45,8.70
2008,12,08,14,46,8.70
2008,12,08,14,47,8.70
2008,12,08,14,48,8.70
2008,12,08,14,49,8.70
2008,12,08,14,50,8.70
2008,12,08,14,51,8.70
2008,12,08,14,52,8.70
2008,12,08,14,53,8.70
2008,12,08,14,54,8.70
2008,12,08,14,55,8.60
2008,12,08,14,56,8.60
2008,12,08,14,57,8.60
2008,12,08,14,58,8.60
2008,12,08,14,59,8.60
2008,12,08,15,00,8.60
2008,12,08,15,01,8.60
2008,12,08,15,02,8.60
2008,12,08,15,03,8.60
2008,12,08,15,04,8.60
2008,12,08,15,05,8.60
2008,12,08,15,06,8.60
2008,12,08,15,07,8.60
2008,12,08,15,08,8.50
2008,12,08,15,09,8.50
2008,12,08,15,10,8.50
2008,12,08,15,11,8.50
2008,12,08,15,12,8.50
2008,12,08,15,13,8.50
2008,12,08,15,14,8.50
2008,12,08,15,15,8.50
2008,12,08,15,16,8.50
2008,12,08,15,17,8.50
2008,12,08,15,18,8.50
2008,12,08,15,19,8.50
2008,12,08,15,20,8.50
2008,12,08,15,21,8.50
2008,12,08,15,22,8.40
2008,12,08,15,23,8.40
2008,12,08,15,24,8.40
2008,12,08,15,25,8.40
2008,12,08,15,26,8.40
2008,12,08,15,27,8.40
2008,12,08,15,28,8.30
2008,12,08,15,29,8.30
2008,12,08,15,30,8.30
2008,12,08,15,31,8.30
2008,12,08,15,32,8.30
2008,12,08,15,33,8.30
2008,12,08,15,34,8.30
2008,12,08,15,35,8.30
2008,12,08,15,36,8.20
2008,12,08,15,37,8.20
2008,12,08,15,38,8.20
2008,12,08,15,39,8.10
2008,12,08,15,40,8.10
2008,12,08,15,41,8.10
2008,12,08,15,42,8.10
2008,12,08,15,43,8.00
2008,12,08,15,44,8.00
2008,12,08,15,45,7.90
2008,12,08,15,46,7.90
2008,12,08,15,47,7.90
2008,12,08,15,48,7.90
2008,12,08,15,49,7.80
2008,12,08,15,50,7.80
2008,12,08,15,51,7.80
2008,12,08,15,52,7.80
2008,12,08,15,53,7.80
2008,12,08,15,54,7.80
2008,12,08,15,55,7.80
2008,12,08,15,56,7.80
2008,12,08,15,57,7.70
2008,12,08,15,58,7.70
2008,12,08,15,59,7.70
2008,12,08,16,00,7.70
2008,12,08,16,01,7.70
2008,12,08,16,02,7.70
2008,12,08,16,03,7.70
2008,12,08,16,04,7.70
2008,12,08,16,05,7.70
2008,12,08,16,06,7.70
2008,12,08,16,07,7.60
2008,12,08,16,08,7.60
2008,12,08,16,09,7.60
2008,12,08,16,10,7.60
2008,12,08,16,11,7.60
2008,12,08,16,12,7.60
2008,12,08,16,13,7.60
2008,12,08,16,14,7.50
2008,12,08,16,15,7.50
2008,12,08,16,16,7.50
2008,12,08,16,17,7.40
2008,12,08,16,18,7.40
2008,12,08,16,19,7.40
2008,12,08,16,20,7.40
2008,12,08,16,21,7.40
2008,12,08,16,22,7.30
2008,12,08,16,23,7.30
2008,12,08,16,24,7.30
2008,12,08,16,25,7.30
2008,12,08,16,26,7.30
2008,12,08,16,27,7.30
2008,12,08,16,28,7.30
2008,12,08,16,29,7.30
2008,12,08,16,30,7.30
2008,12,08,16,31,7.30
2008,12,08,16,32,7.30
2008,12,08,16,33,7.30
2008,12,08,16,34,7.30
2008,12,08,16,35,7.30
2008,12,08,16,36,7.30
2008,12,08,16,37,7.30
2008,12,08,16,38,7.20
2008,12,08,16,39,7.20
2008,12,08,16,40,7.20
2008,12,08,16,41,7.20
2008,12,08,16,42,7.20
2008,12,08,16,43,7.20
2008,12,08,16,44,7.20
2008,12,08,16,45,7.20
2008,12,08,16,46,7.20
2008,12,08,16,47,7.20
2008,12,08,16,48,7.20
2008,12,08,16,49,7.10
2008,12,08,16,50,7.00
2008,12,08,16,51,7.00
2008,12,08,16,52,6.90
2008,12,08,16,53,6.90
2008,12,08,16,54,6.80
2008,12,08,16,55,6.80
2008,12,08,16,56,6.80
2008,12,08,16,57,6.80
2008,12,08,16,58,6.70
2008,12,08,16,59,6.70
2008,12,08,17,00,6.70
2008,12,08,17,01,6.70
2008,12,08,17,02,6.70
2008,12,08,17,03,6.60
2008,12,08,17,04,6.60
2008,12,08,17,05,6.60
2008,12,08,17,06,6.50
2008,12,08,17,07,6.50
2008,12,08,17,08,6.40
2008,12,08,17,09,6.40
2008,12,08,17,10,6.40
2008,12,08,17,11,6.30
2008,12,08,17,12,6.30
2008,12,08,17,13,6.30
2008,12,08,17,14,6.30
2008,12,08,17,15,6.30
2008,12,08,17,16,6.30
2008,12,08,17,17,6.30
2008,12,08,17,18,6.20
2008,12,08,17,19,6.20
2008,12,08,17,20,6.20
2008,12,08,17,21,6.20
2008,12,08,17,22,6.20
2008,12,08,17,23,6.20
2008,12,08,17,24,6.20
2008,12,08,17,25,6.20
2008,12,08,17,26,6.20
2008,12,08,17,27,6.20
2008,12,08,17,28,6.20
2008,12,08,17,29,6.20
2008,12,08,17,30,6.10
2008,12,08,17,31,6.10
2008,12,08,17,32,6.10
2008,12,08,17,33,6.00
2008,12,08,17,34,6.00
2008,12,08,17,35,5.90
2008,12,08,17,36,5.90
2008,12,08,17,37,5.90
2008,12,08,17,38,5.90
2008,12,08,17,39,5.90
2008,12,08,17,40,5.90
2008,12,08,17,41,5.90
2008,12,08,17,42,5.90
2008,12,08,17,43,5.90
2008,12,08,17,44,5.90
2008,12,08,17,45,5.90
2008,12,08,17,46,5.90
2008,12,08,17,47,5.90
2008,12,08,17,48,5.90
2008,12,08,17,49,5.90
2008,12,08,17,50,5.90
2008,12,08,17,51,5.80
2008,12,08,17,52,5.80
2008,12,08,17,53,5.80
2008,12,08,17,54,5.80
2008,12,08,17,55,5.80
2008,12,08,17,56,5.80
2008,12,08,17,57,5.70
2008,12,08,17,58,5.70
2008,12,08,17,59,5.70
2008,12,08,18,00,5.70
2008,12,08,18,01,5.60
2008,12,08,18,02,5.60
2008,12,08,18,03,5.60
2008,12,08,18,04,5.60
2008,12,08,18,05,5.60
2008,12,08,18,06,5.50